����������;��������(kWh)
2016-02-01 00:00;82,4
2016-02-01 00:15;80,85
2016-02-01 00:30;81,75
2016-02-01 00:45;80,4
2016-02-01 01:00;81,6
2016-02-01 01:15;82,1
2016-02-01 01:30;81,85
2016-02-01 01:45;82,15
2016-02-01 02:00;81,65
2016-02-01 02:15;81,05
2016-02-01 02:30;81
2016-02-01 02:45;79,95
2016-02-01 03:00;84,45
2016-02-01 03:15;88,45
2016-02-01 03:30;88,95
2016-02-01 03:45;88,95
2016-02-01 04:00;93
2016-02-01 04:15;90,4
2016-02-01 04:30;90,8
2016-02-01 04:45;91,1
2016-02-01 05:00;90,25
2016-02-01 05:15;86,2
2016-02-01 05:30;91,9
2016-02-01 05:45;87,55
2016-02-01 06:00;87,7
2016-02-01 06:15;94,1
2016-02-01 06:30;96,85
2016-02-01 06:45;95,15
2016-02-01 07:00;96,3
2016-02-01 07:15;103
2016-02-01 07:30;103,8
2016-02-01 07:45;108,5
2016-02-01 08:00;139,4
2016-02-01 08:15;160,1
2016-02-01 08:30;172,2
2016-02-01 08:45;170,45
2016-02-01 09:00;189,1
2016-02-01 09:15;234,65
2016-02-01 09:30;248
2016-02-01 09:45;199
2016-02-01 10:00;207,5
2016-02-01 10:15;215,1
2016-02-01 10:30;212,4
2016-02-01 10:45;220,6
2016-02-01 11:00;241,7
2016-02-01 11:15;234,7
2016-02-01 11:30;230,1
2016-02-01 11:45;236,3
2016-02-01 12:00;236,45
2016-02-01 12:15;229,6
2016-02-01 12:30;227,05
2016-02-01 12:45;222,15
2016-02-01 13:00;227,55
2016-02-01 13:15;236,65
2016-02-01 13:30;233,4
2016-02-01 13:45;214,9
2016-02-01 14:00;227,2
2016-02-01 14:15;212,75
2016-02-01 14:30;233
2016-02-01 14:45;221,6
2016-02-01 15:00;216,6
2016-02-01 15:15;229
2016-02-01 15:30;209,3
2016-02-01 15:45;215,7
2016-02-01 16:00;206,2
2016-02-01 16:15;178,85
2016-02-01 16:30;172,3
2016-02-01 16:45;167,15
2016-02-01 17:00;166,25
2016-02-01 17:15;161,65
2016-02-01 17:30;164,1
2016-02-01 17:45;164,35
2016-02-01 18:00;162,5
2016-02-01 18:15;167,85
2016-02-01 18:30;166,5
2016-02-01 18:45;166,05
2016-02-01 19:00;165,5
2016-02-01 19:15;157,6
2016-02-01 19:30;150,8
2016-02-01 19:45;141,2
2016-02-01 20:00;138,6
2016-02-01 20:15;134,3
2016-02-01 20:30;132,85
2016-02-01 20:45;137,7
2016-02-01 21:00;125,5
2016-02-01 21:15;114,1
2016-02-01 21:30;115
2016-02-01 21:45;110,45
2016-02-01 22:00;105,1
2016-02-01 22:15;96,85
2016-02-01 22:30;96,85
2016-02-01 22:45;98,85
2016-02-01 23:00;104,85
2016-02-01 23:15;105,05
2016-02-01 23:30;104,65
2016-02-01 23:45;104,6
2016-02-02 00:00;103,25
2016-02-02 00:15;99
2016-02-02 00:30;94,85
2016-02-02 00:45;93,35
2016-02-02 01:00;91,3
2016-02-02 01:15;92,65
2016-02-02 01:30;89,85
2016-02-02 01:45;87,25
2016-02-02 02:00;89,65
2016-02-02 02:15;88,35
2016-02-02 02:30;87,4
2016-02-02 02:45;86,1
2016-02-02 03:00;84,05
2016-02-02 03:15;84,8
2016-02-02 03:30;83,35
2016-02-02 03:45;83,65
2016-02-02 04:00;88,95
2016-02-02 04:15;83,1
2016-02-02 04:30;83,75
2016-02-02 04:45;86,35
2016-02-02 05:00;99,05
2016-02-02 05:15;114,3
2016-02-02 05:30;113,55
2016-02-02 05:45;99,35
2016-02-02 06:00;99,75
2016-02-02 06:15;97,05
2016-02-02 06:30;105,05
2016-02-02 06:45;102,6
2016-02-02 07:00;107,7
2016-02-02 07:15;113,35
2016-02-02 07:30;117,35
2016-02-02 07:45;120,3
2016-02-02 08:00;167,1
2016-02-02 08:15;145,75
2016-02-02 08:30;157
2016-02-02 08:45;163,1
2016-02-02 09:00;221,1
2016-02-02 09:15;223,4
2016-02-02 09:30;176,7
2016-02-02 09:45;181,3
2016-02-02 10:00;193,05
2016-02-02 10:15;190,95
2016-02-02 10:30;213,8
2016-02-02 10:45;211,5
2016-02-02 11:00;225,85
2016-02-02 11:15;209,4
2016-02-02 11:30;216,6
2016-02-02 11:45;232
2016-02-02 12:00;218
2016-02-02 12:15;221,5
2016-02-02 12:30;212
2016-02-02 12:45;202,3
2016-02-02 13:00;229,6
2016-02-02 13:15;208,55
2016-02-02 13:30;214,45
2016-02-02 13:45;206,7
2016-02-02 14:00;204,4
2016-02-02 14:15;201,3
2016-02-02 14:30;178,05
2016-02-02 14:45;188,9
2016-02-02 15:00;166,05
2016-02-02 15:15;162,95
2016-02-02 15:30;166,45
2016-02-02 15:45;147,8
2016-02-02 16:00;153,9
2016-02-02 16:15;135,65
2016-02-02 16:30;135,2
2016-02-02 16:45;140,6
2016-02-02 17:00;135,65
2016-02-02 17:15;138,2
2016-02-02 17:30;138,8
2016-02-02 17:45;142,5
2016-02-02 18:00;149,05
2016-02-02 18:15;155
2016-02-02 18:30;157,9
2016-02-02 18:45;154,7
2016-02-02 19:00;153,7
2016-02-02 19:15;138,2
2016-02-02 19:30;135,6
2016-02-02 19:45;131,85
2016-02-02 20:00;122,5
2016-02-02 20:15;120,6
2016-02-02 20:30;116,55
2016-02-02 20:45;112,95
2016-02-02 21:00;110,8
2016-02-02 21:15;105,75
2016-02-02 21:30;105,2
2016-02-02 21:45;102,2
2016-02-02 22:00;96,3
2016-02-02 22:15;91,05
2016-02-02 22:30;96,05
2016-02-02 22:45;97,05
2016-02-02 23:00;98,7
2016-02-02 23:15;96,05
2016-02-02 23:30;95,05
2016-02-02 23:45;94,7
2016-02-03 00:00;94,85
2016-02-03 00:15;92,1
2016-02-03 00:30;87,35
2016-02-03 00:45;88,45
2016-02-03 01:00;85,35
2016-02-03 01:15;84,65
2016-02-03 01:30;88,1
2016-02-03 01:45;87,95
2016-02-03 02:00;95,9
2016-02-03 02:15;115,25
2016-02-03 02:30;106,25
2016-02-03 02:45;95,65
2016-02-03 03:00;95,35
2016-02-03 03:15;94,65
2016-02-03 03:30;93,85
2016-02-03 03:45;94,6
2016-02-03 04:00;95,85
2016-02-03 04:15;92,9
2016-02-03 04:30;93,35
2016-02-03 04:45;94,15
2016-02-03 05:00;92,05
2016-02-03 05:15;86,85
2016-02-03 05:30;92,9
2016-02-03 05:45;88,3
2016-02-03 06:00;93,5
2016-02-03 06:15;99,3
2016-02-03 06:30;101,85
2016-02-03 06:45;101,25
2016-02-03 07:00;96,85
2016-02-03 07:15;100,9
2016-02-03 07:30;101,55
2016-02-03 07:45;110,4
2016-02-03 08:00;171,95
2016-02-03 08:15;187,5
2016-02-03 08:30;146,95
2016-02-03 08:45;134,9
2016-02-03 09:00;153,7
2016-02-03 09:15;154,75
2016-02-03 09:30;166,45
2016-02-03 09:45;167,7
2016-02-03 10:00;164,3
2016-02-03 10:15;185,7
2016-02-03 10:30;180,2
2016-02-03 10:45;200,15
2016-02-03 11:00;189
2016-02-03 11:15;199
2016-02-03 11:30;184,55
2016-02-03 11:45;191,5
2016-02-03 12:00;190,85
2016-02-03 12:15;177
2016-02-03 12:30;191,9
2016-02-03 12:45;176,25
2016-02-03 13:00;182,45
2016-02-03 13:15;176,55
2016-02-03 13:30;181,55
2016-02-03 13:45;178,05
2016-02-03 14:00;176,25
2016-02-03 14:15;191,15
2016-02-03 14:30;167,65
2016-02-03 14:45;183,85
2016-02-03 15:00;167,5
2016-02-03 15:15;177,8
2016-02-03 15:30;162,55
2016-02-03 15:45;141,7
2016-02-03 16:00;145,35
2016-02-03 16:15;137,45
2016-02-03 16:30;135,55
2016-02-03 16:45;128,2
2016-02-03 17:00;131,85
2016-02-03 17:15;130,2
2016-02-03 17:30;129,4
2016-02-03 17:45;131,85
2016-02-03 18:00;130,7
2016-02-03 18:15;134,1
2016-02-03 18:30;135,8
2016-02-03 18:45;138,3
2016-02-03 19:00;132,85
2016-02-03 19:15;129,55
2016-02-03 19:30;128,5
2016-02-03 19:45;127,85
2016-02-03 20:00;124,8
2016-02-03 20:15;124,2
2016-02-03 20:30;119,85
2016-02-03 20:45;116,1
2016-02-03 21:00;117,45
2016-02-03 21:15;112,6
2016-02-03 21:30;113,55
2016-02-03 21:45;109,1
2016-02-03 22:00;110,3
2016-02-03 22:15;100,9
2016-02-03 22:30;94,25
2016-02-03 22:45;88,75
2016-02-03 23:00;88,95
2016-02-03 23:15;92,45
2016-02-03 23:30;91,1
2016-02-03 23:45;85,1
2016-02-04 00:00;86
2016-02-04 00:15;86,8
2016-02-04 00:30;89,85
2016-02-04 00:45;89,45
2016-02-04 01:00;89,15
2016-02-04 01:15;90,95
2016-02-04 01:30;90,1
2016-02-04 01:45;89,2
2016-02-04 02:00;88,85
2016-02-04 02:15;88,8
2016-02-04 02:30;88,95
2016-02-04 02:45;89,8
2016-02-04 03:00;90,9
2016-02-04 03:15;87,8
2016-02-04 03:30;83,75
2016-02-04 03:45;84,8
2016-02-04 04:00;87,8
2016-02-04 04:15;85,5
2016-02-04 04:30;82,95
2016-02-04 04:45;85,4
2016-02-04 05:00;84,15
2016-02-04 05:15;79,75
2016-02-04 05:30;82,95
2016-02-04 05:45;81,25
2016-02-04 06:00;82,9
2016-02-04 06:15;115,25
2016-02-04 06:30;124,05
2016-02-04 06:45;110
2016-02-04 07:00;105,9
2016-02-04 07:15;105,15
2016-02-04 07:30;100,3
2016-02-04 07:45;99,5
2016-02-04 08:00;164,45
2016-02-04 08:15;180,7
2016-02-04 08:30;134,35
2016-02-04 08:45;135,15
2016-02-04 09:00;146,9
2016-02-04 09:15;142,6
2016-02-04 09:30;150,6
2016-02-04 09:45;157,5
2016-02-04 10:00;148,7
2016-02-04 10:15;171,5
2016-02-04 10:30;161,3
2016-02-04 10:45;177,95
2016-02-04 11:00;184,8
2016-02-04 11:15;169,2
2016-02-04 11:30;163,65
2016-02-04 11:45;177,1
2016-02-04 12:00;162,3
2016-02-04 12:15;168,85
2016-02-04 12:30;166,15
2016-02-04 12:45;172,05
2016-02-04 13:00;169,25
2016-02-04 13:15;170,1
2016-02-04 13:30;175,65
2016-02-04 13:45;171,65
2016-02-04 14:00;177,3
2016-02-04 14:15;161,65
2016-02-04 14:30;175,95
2016-02-04 14:45;164,55
2016-02-04 15:00;168,75
2016-02-04 15:15;163,3
2016-02-04 15:30;157,7
2016-02-04 15:45;165,7
2016-02-04 16:00;156,65
2016-02-04 16:15;145,7
2016-02-04 16:30;122,85
2016-02-04 16:45;125,65
2016-02-04 17:00;128,7
2016-02-04 17:15;127,55
2016-02-04 17:30;122,4
2016-02-04 17:45;122,55
2016-02-04 18:00;118,6
2016-02-04 18:15;125,3
2016-02-04 18:30;130,55
2016-02-04 18:45;126,4
2016-02-04 19:00;130,15
2016-02-04 19:15;123,7
2016-02-04 19:30;122
2016-02-04 19:45;119,7
2016-02-04 20:00;121,9
2016-02-04 20:15;123,55
2016-02-04 20:30;121,05
2016-02-04 20:45;118,75
2016-02-04 21:00;119,1
2016-02-04 21:15;108,5
2016-02-04 21:30;109,5
2016-02-04 21:45;103,85
2016-02-04 22:00;102,55
2016-02-04 22:15;97,75
2016-02-04 22:30;99,15
2016-02-04 22:45;95,35
2016-02-04 23:00;90,6
2016-02-04 23:15;88,95
2016-02-04 23:30;87,85
2016-02-04 23:45;88,2
2016-02-05 00:00;86,3
2016-02-05 00:15;89,4
2016-02-05 00:30;83,85
2016-02-05 00:45;84,45
2016-02-05 01:00;85,35
2016-02-05 01:15;87,6
2016-02-05 01:30;86,6
2016-02-05 01:45;87,6
2016-02-05 02:00;86,15
2016-02-05 02:15;86,05
2016-02-05 02:30;87,45
2016-02-05 02:45;84,1
2016-02-05 03:00;85,35
2016-02-05 03:15;85,15
2016-02-05 03:30;86,75
2016-02-05 03:45;85,9
2016-02-05 04:00;91
2016-02-05 04:15;83,9
2016-02-05 04:30;87,6
2016-02-05 04:45;87,2
2016-02-05 05:00;88
2016-02-05 05:15;80,25
2016-02-05 05:30;85,05
2016-02-05 05:45;77,8
2016-02-05 06:00;82,1
2016-02-05 06:15;80,8
2016-02-05 06:30;96,45
2016-02-05 06:45;115,6
2016-02-05 07:00;111,5
2016-02-05 07:15;108,4
2016-02-05 07:30;103,75
2016-02-05 07:45;114,35
2016-02-05 08:00;124,65
2016-02-05 08:15;124,65
2016-02-05 08:30;142,2
2016-02-05 08:45;145,35
2016-02-05 09:00;180,45
2016-02-05 09:15;243,05
2016-02-05 09:30;255,5
2016-02-05 09:45;200
2016-02-05 10:00;214
2016-02-05 10:15;224,25
2016-02-05 10:30;226,85
2016-02-05 10:45;240,4
2016-02-05 11:00;250,55
2016-02-05 11:15;229,5
2016-02-05 11:30;233,8
2016-02-05 11:45;238,25
2016-02-05 12:00;227,9
2016-02-05 12:15;228,55
2016-02-05 12:30;237
2016-02-05 12:45;239,8
2016-02-05 13:00;233,7
2016-02-05 13:15;222,8
2016-02-05 13:30;229,65
2016-02-05 13:45;222,3
2016-02-05 14:00;243,6
2016-02-05 14:15;290,7
2016-02-05 14:30;264,8
2016-02-05 14:45;222,5
2016-02-05 15:00;227,25
2016-02-05 15:15;221,75
2016-02-05 15:30;215
2016-02-05 15:45;217,25
2016-02-05 16:00;187,1
2016-02-05 16:15;194,9
2016-02-05 16:30;175,1
2016-02-05 16:45;171,85
2016-02-05 17:00;173,35
2016-02-05 17:15;169,85
2016-02-05 17:30;153,8
2016-02-05 17:45;151,05
2016-02-05 18:00;147,95
2016-02-05 18:15;151
2016-02-05 18:30;154,95
2016-02-05 18:45;152,2
2016-02-05 19:00;150,75
2016-02-05 19:15;141,2
2016-02-05 19:30;142,1
2016-02-05 19:45;139,2
2016-02-05 20:00;137,75
2016-02-05 20:15;137,7
2016-02-05 20:30;141,35
2016-02-05 20:45;139,1
2016-02-05 21:00;133,25
2016-02-05 21:15;137,75
2016-02-05 21:30;120
2016-02-05 21:45;100,7
2016-02-05 22:00;97
2016-02-05 22:15;97,85
2016-02-05 22:30;95,15
2016-02-05 22:45;92,55
2016-02-05 23:00;94,05
2016-02-05 23:15;92,7
2016-02-05 23:30;89,8
2016-02-05 23:45;87
2016-02-06 00:00;88,25
2016-02-06 00:15;90,7
2016-02-06 00:30;93
2016-02-06 00:45;89,4
2016-02-06 01:00;84,45
2016-02-06 01:15;83,7
2016-02-06 01:30;84,5
2016-02-06 01:45;84,6
2016-02-06 02:00;86,75
2016-02-06 02:15;83,25
2016-02-06 02:30;58,6
2016-02-06 02:45;89,3
2016-02-06 03:00;78,85
2016-02-06 03:15;78,05
2016-02-06 03:30;77
2016-02-06 03:45;78,4
2016-02-06 04:00;82,85
2016-02-06 04:15;79,75
2016-02-06 04:30;79,7
2016-02-06 04:45;81,45
2016-02-06 05:00;82,7
2016-02-06 05:15;87,25
2016-02-06 05:30;84,1
2016-02-06 05:45;75,65
2016-02-06 06:00;76,3
2016-02-06 06:15;75,9
2016-02-06 06:30;81,05
2016-02-06 06:45;77,4
2016-02-06 07:00;77,75
2016-02-06 07:15;82,15
2016-02-06 07:30;84,95
2016-02-06 07:45;80,95
2016-02-06 08:00;75,4
2016-02-06 08:15;76,4
2016-02-06 08:30;83,05
2016-02-06 08:45;77,25
2016-02-06 09:00;77,5
2016-02-06 09:15;79,65
2016-02-06 09:30;81,25
2016-02-06 09:45;90,3
2016-02-06 10:00;86,9
2016-02-06 10:15;82,95
2016-02-06 10:30;87,4
2016-02-06 10:45;101,05
2016-02-06 11:00;106,15
2016-02-06 11:15;89,55
2016-02-06 11:30;73,65
2016-02-06 11:45;90,35
2016-02-06 12:00;91,4
2016-02-06 12:15;82,6
2016-02-06 12:30;82,2
2016-02-06 12:45;80,9
2016-02-06 13:00;85,35
2016-02-06 13:15;84,35
2016-02-06 13:30;83,1
2016-02-06 13:45;88,95
2016-02-06 14:00;85,05
2016-02-06 14:15;86,7
2016-02-06 14:30;85,5
2016-02-06 14:45;96,4
2016-02-06 15:00;96,1
2016-02-06 15:15;90,65
2016-02-06 15:30;91,8
2016-02-06 15:45;92,25
2016-02-06 16:00;93,5
2016-02-06 16:15;89,9
2016-02-06 16:30;93,05
2016-02-06 16:45;100,75
2016-02-06 17:00;107,25
2016-02-06 17:15;107,65
2016-02-06 17:30;96,7
2016-02-06 17:45;97,8
2016-02-06 18:00;98,95
2016-02-06 18:15;99,45
2016-02-06 18:30;104,9
2016-02-06 18:45;103,5
2016-02-06 19:00;104,75
2016-02-06 19:15;104,75
2016-02-06 19:30;112,9
2016-02-06 19:45;108,25
2016-02-06 20:00;119,45
2016-02-06 20:15;109,8
2016-02-06 20:30;109
2016-02-06 20:45;108,9
2016-02-06 21:00;106,1
2016-02-06 21:15;108
2016-02-06 21:30;110,25
2016-02-06 21:45;108,9
2016-02-06 22:00;108,3
2016-02-06 22:15;103,85
2016-02-06 22:30;99,5
2016-02-06 22:45;99,8
2016-02-06 23:00;87,6
2016-02-06 23:15;88,2
2016-02-06 23:30;88,75
2016-02-06 23:45;86,8
2016-02-07 00:00;82,1
2016-02-07 00:15;81,3
2016-02-07 00:30;81,55
2016-02-07 00:45;80,3
2016-02-07 01:00;79,25
2016-02-07 01:15;78,55
2016-02-07 01:30;79,9
2016-02-07 01:45;78,65
2016-02-07 02:00;78,15
2016-02-07 02:15;75,3
2016-02-07 02:30;77,55
2016-02-07 02:45;75,95
2016-02-07 03:00;76,15
2016-02-07 03:15;75,55
2016-02-07 03:30;76,55
2016-02-07 03:45;76,25
2016-02-07 04:00;77,75
2016-02-07 04:15;79,2
2016-02-07 04:30;79,4
2016-02-07 04:45;81,9
2016-02-07 05:00;79,15
2016-02-07 05:15;76,4
2016-02-07 05:30;81,8
2016-02-07 05:45;76,9
2016-02-07 06:00;73,4
2016-02-07 06:15;85,3
2016-02-07 06:30;77,95
2016-02-07 06:45;75,25
2016-02-07 07:00;76,6
2016-02-07 07:15;82,3
2016-02-07 07:30;80,8
2016-02-07 07:45;77,95
2016-02-07 08:00;79,55
2016-02-07 08:15;81,15
2016-02-07 08:30;82,45
2016-02-07 08:45;80
2016-02-07 09:00;74,8
2016-02-07 09:15;71,8
2016-02-07 09:30;71,4
2016-02-07 09:45;71
2016-02-07 10:00;70,5
2016-02-07 10:15;71,5
2016-02-07 10:30;82,25
2016-02-07 10:45;84,3
2016-02-07 11:00;93,2
2016-02-07 11:15;81,3
2016-02-07 11:30;82,55
2016-02-07 11:45;79,85
2016-02-07 12:00;81,35
2016-02-07 12:15;76,45
2016-02-07 12:30;73,85
2016-02-07 12:45;75,15
2016-02-07 13:00;78,9
2016-02-07 13:15;75,75
2016-02-07 13:30;75
2016-02-07 13:45;79,3
2016-02-07 14:00;84
2016-02-07 14:15;88,15
2016-02-07 14:30;84,4
2016-02-07 14:45;86,15
2016-02-07 15:00;87,8
2016-02-07 15:15;89,1
2016-02-07 15:30;88,15
2016-02-07 15:45;85,25
2016-02-07 16:00;86,45
2016-02-07 16:15;85,05
2016-02-07 16:30;86,8
2016-02-07 16:45;90,35
2016-02-07 17:00;90,55
2016-02-07 17:15;93,6
2016-02-07 17:30;93,35
2016-02-07 17:45;94,45
2016-02-07 18:00;93,8
2016-02-07 18:15;96,55
2016-02-07 18:30;105,2
2016-02-07 18:45;108,2
2016-02-07 19:00;111,05
2016-02-07 19:15;114,2
2016-02-07 19:30;114,5
2016-02-07 19:45;117,9
2016-02-07 20:00;114,05
2016-02-07 20:15;110,05
2016-02-07 20:30;112,75
2016-02-07 20:45;111,75
2016-02-07 21:00;111,6
2016-02-07 21:15;102,5
2016-02-07 21:30;97,65
2016-02-07 21:45;94,8
2016-02-07 22:00;90,5
2016-02-07 22:15;90,25
2016-02-07 22:30;90,2
2016-02-07 22:45;89,4
2016-02-07 23:00;90,5
2016-02-07 23:15;86,7
2016-02-07 23:30;89,25
2016-02-07 23:45;86,85

